STARLINK-3332 (50825 NORAD) Tracking and Keplerian Element Data

This shows tracking and keplerian element data for the satellite.

Feedback or suggestion? Click here.




ElementValue
Catalog50825
NameSTARLINK-3332
Epoch Orbit382
Epoch Day22.91667824
Epoch Year2022
RAAN119.7695
Inclination53.2175
Eccentricity0.0001115
Argument of Perigee63.3881
Mean Anonmoly247.3225
Mean Motion15.75199826
Decay Rate-0.00821332
L11 50825U 22001Y 22022.91667824 -.00821332 00000+0 -59062-2 0 9990
L22 50825 53.2175 119.7695 0001115 63.3881 247.3225 15.75199826 3821

Live tracking and technical data element details for STARLINK-3332 (NORAD 50825). STARLINK-3332 can be tracked NOW for your location showing map with azimuth and elevation plus other details from your city location.

Track the satellite on the map from your city or location and see movement details for azimuth, elevation, latitude, longitude, range, height, and movement on the map or in text.







IsCatalogInMostPopularTable: catalog: 50825, numindb: 2
Update: records affected: 1



GetName: 50825 STARLINK-3332

Hit Count: updated at: Mon, 24 Jan 2022 01:04:38 GMT